Berlin, NH

12:22 AM EST on January 20, 2018 (GMT -0500)
Berlin Municipal

Weather History for KBML - September, 2013

Change the Weather History Date:

Monday, September 2, 2013

  Actual Average Record
Temperature  
Mean Temperature 68 °F -  
Max Temperature 73 °F 73 °F 87 °F (1999)
Min Temperature 64 °F 44 °F 33 °F (2007)
Cooling Degree Days 4    
Growing Degree Days 18 (Base 50)    
Moisture  
Dew Point 65 °F    
Average Humidity 90    
Maximum Humidity 100    
Minimum Humidity 73    
Precipitation  
Precipitation 0.77 in - - ()
Sea Level Pressure  
Sea Level Pressure 29.83 in    
Wind  
Wind Speed 3 mph (SE)    
Max Wind Speed 9 mph    
Max Gust Speed -    
Visibility 8 miles    
Events Rain , Thunderstorm    
Averages and records for this station are not official NWS values.
T = Trace of Precipitation, MM = Missing Value Source: NWS Daily Summary

Daily Weather History Graph

Daily Weather History Graph

Search for Another Location

Airport or City:

Trip Planner

Search our weather history database for the weather conditions in past years. The results will help you decide how hot, cold, wet, or windy it might be!

Date:

Astronomy

Sep. 02, 2013 Rise Set
Actual Time 6:08 AM EDT 7:19 PM EDT
Civil Twilight 5:38 AM EDT 7:48 PM EDT
Nautical Twilight 5:02 AM EDT 8:24 PM EDT
Astronomical Twilight 4:24 AM EDT 9:02 PM EDT
Moon 3:18 AM EDT (9/2) 5:33 PM EDT (9/2)
Length of Visible Light 14h 10m
Length of Day
13h 10m
Waning Crescent, 8% of the Moon is Illuminated
Sep 2
Waning Crescent
Sep 5
New
Sep 12
First Quarter
Sep 19
Full
Sep 26
Last Quarter

Hourly Weather History & Observations

Time (EDT) Temp. Dew Point Humidity Pressure Visibility Wind Dir Wind Speed Gust Speed Precip Events Conditions
12:52 AM 68.0 °F 64.9 °F 90% 29.90 in 10.0 mi NNW 4.6 mph - N/A   Partly Cloudy
1:22 AM 68.0 °F 66.2 °F 94% 29.91 in 10.0 mi Calm Calm - N/A   Overcast
1:52 AM 69.1 °F 64.9 °F 87% 29.89 in 10.0 mi Calm Calm - N/A   Overcast
2:52 AM 70.0 °F 64.9 °F 84% 29.88 in 10.0 mi ESE 4.6 mph - 0.00 in   Overcast
3:52 AM 66.9 °F 66.0 °F 97% 29.87 in 8.0 mi WNW 3.5 mph - 0.01 in Rain Light Rain
4:07 AM 66.2 °F 66.2 °F 100% 29.88 in 2.5 mi Calm Calm - 0.06 in Rain Rain
4:15 AM 66.2 °F 66.2 °F 100% 29.89 in 8.0 mi Calm Calm - 0.06 in Rain Light Rain
4:52 AM 66.9 °F 66.0 °F 97% 29.86 in 2.5 mi Calm Calm - 0.14 in Rain Rain
4:55 AM 66.2 °F 66.2 °F 100% 29.88 in 3.0 mi Calm Calm - 0.00 in Rain Light Rain
5:35 AM 66.2 °F 66.2 °F 100% 29.88 in 6.0 mi Calm Calm - 0.01 in   Overcast
5:52 AM 66.9 °F 66.0 °F 97% 29.87 in 8.0 mi Calm Calm - 0.01 in   Overcast
6:52 AM 68.0 °F 66.0 °F 93% 29.86 in 7.0 mi East 3.5 mph - 0.02 in Rain Rain
7:52 AM 68.0 °F 66.0 °F 93% 29.85 in 7.0 mi East 3.5 mph - 0.02 in Rain Light Rain
8:12 AM 68.0 °F 64.4 °F 88% 29.87 in 4.0 mi SE 6.9 mph - 0.04 in Rain Rain
8:32 AM 66.2 °F 64.4 °F 94% 29.87 in 7.0 mi SE 6.9 mph - 0.07 in Rain , Thunderstorm Light Rain
8:47 AM 66.2 °F 64.4 °F 94% 29.85 in 5.0 mi ENE 3.5 mph - 0.11 in Rain Rain
8:52 AM 66.9 °F 64.0 °F 90% 29.84 in 4.0 mi Calm Calm - 0.13 in Rain Rain
9:02 AM 66.2 °F 64.4 °F 94% 29.86 in 1.8 mi Variable 3.5 mph - 0.03 in Rain Rain
9:13 AM 66.2 °F 64.4 °F 94% 29.86 in 1.2 mi SW 3.5 mph - 0.08 in Rain Rain
9:20 AM 66.2 °F 64.4 °F 94% 29.87 in 2.0 mi Calm Calm - 0.09 in Rain Rain
9:29 AM 66.2 °F 66.2 °F 100% 29.87 in 7.0 mi Calm Calm - 0.09 in Rain Light Rain
9:52 AM 68.0 °F 66.0 °F 93% 29.86 in 10.0 mi SE 4.6 mph - 0.09 in   Overcast
10:52 AM 70.0 °F 64.0 °F 81% 29.85 in 10.0 mi ESE 5.8 mph - N/A   Overcast
11:52 AM 72.0 °F 64.0 °F 76% 29.84 in 10.0 mi Variable 5.8 mph - N/A   Overcast
12:52 PM 71.1 °F 63.0 °F 75% 29.83 in 10.0 mi SE 6.9 mph - N/A   Overcast
1:52 PM 72.0 °F 64.0 °F 76% 29.82 in 10.0 mi South 5.8 mph - N/A   Mostly Cloudy
2:01 PM 71.6 °F 62.6 °F 73% 29.83 in 10.0 mi Variable 4.6 mph - N/A   Mostly Cloudy
2:28 PM 71.6 °F 62.6 °F 73% 29.82 in 10.0 mi South 3.5 mph - N/A   Overcast
2:45 PM 71.6 °F 64.4 °F 78% 29.82 in 10.0 mi Calm Calm - N/A   Overcast
2:52 PM 71.1 °F 64.0 °F 78% 29.80 in 10.0 mi Calm Calm - N/A   Overcast
3:26 PM 71.6 °F 64.4 °F 78% 29.81 in 10.0 mi Calm Calm - N/A   Overcast
3:52 PM 73.0 °F 64.9 °F 76% 29.79 in 10.0 mi SSE 6.9 mph - N/A   Overcast
4:49 PM 69.8 °F 64.4 °F 83% 29.80 in 10.0 mi SSE 9.2 mph - N/A   Overcast
4:52 PM 70.0 °F 64.0 °F 81% 29.79 in 10.0 mi South 9.2 mph - N/A   Overcast
5:00 PM 69.8 °F 64.4 °F 83% 29.80 in 10.0 mi South 8.1 mph - N/A   Overcast
5:07 PM 69.8 °F 64.4 °F 83% 29.79 in 10.0 mi South 6.9 mph - N/A   Overcast
5:52 PM 70.0 °F 64.0 °F 81% 29.78 in 10.0 mi South 6.9 mph - N/A   Overcast
6:52 PM 68.0 °F 63.0 °F 84% 29.76 in 10.0 mi SSE 5.8 mph - N/A   Mostly Cloudy
7:52 PM 68.0 °F 64.0 °F 87% 29.77 in 10.0 mi Calm Calm - N/A   Overcast
8:52 PM 66.0 °F 64.0 °F 93% 29.77 in 4.0 mi Calm Calm - 0.04 in Rain Heavy Rain
9:31 PM 64.4 °F 64.4 °F 100% 29.76 in 1.5 mi ENE 5.8 mph - 0.21 in Rain Heavy Rain
9:34 PM 64.4 °F 64.4 °F 100% 29.76 in 1.0 mi NE 4.6 mph - 0.27 in Rain Heavy Rain
9:42 PM 64.4 °F 64.4 °F 100% 29.77 in 2.5 mi Variable 3.5 mph - 0.30 in Rain Rain
9:49 PM 64.4 °F 64.4 °F 100% 29.77 in 8.0 mi Calm Calm - 0.30 in Rain Light Rain
9:52 PM 64.9 °F 64.0 °F 97% 29.77 in 10.0 mi WNW 3.5 mph - 0.30 in Rain Light Rain
10:16 PM 64.4 °F 64.4 °F 100% 29.78 in 10.0 mi Calm Calm - N/A   Mostly Cloudy
10:52 PM 64.0 °F 64.0 °F 100% 29.76 in 10.0 mi Calm Calm - N/A   Mostly Cloudy
11:22 PM 64.4 °F 64.4 °F 100% 29.76 in 10.0 mi Calm Calm - N/A   Mostly Cloudy
11:52 PM 64.9 °F 64.0 °F 97% 29.76 in 8.0 mi Variable 3.5 mph - 0.01 in Rain Light Rain